Regional Weather Roundup
Issued by NWS

Home | Current Version | Previous Version | Text Only | Print | Product List | Glossary Off
Versions: 1 2 3 4 5 6 7 8 9 10 11 12 13 14 15 16 17 18 19 20 21 22 23 24 25 26 27 28 29 30 31 32 33 34 35 36 37 38 39 40 41 42 43 44 45

000
ASUS45 KPSR 261610
RWRAZ

ARIZONA HOURLY REGIONAL WEATHER ROUNDUP
NATIONAL WEATHER SERVICE PHOENIX AZ
900 AM MST FRI MAY 26 2017

NOTE: FAIR INDICATES FEW OR NO CLOUDS BELOW 12,000 FEET WITH NO
SIGNIFICANT WEATHER AND/OR OBSTRUCTIONS TO VISIBILITY.

AZZ001>003-036-261700-
NORTHWEST ARIZONA

CITY           SKY/WX    TMP DP  RH WIND       PRES   REMARKS
BULLHEAD CITY  SUNNY     81  36  19 S18       29.76R
KINGMAN        SUNNY     76  21  12 SW22      29.85R
$$

AZZ004>008-015-016-018-261700-
NORTH CENTRAL ARIZONA

CITY           SKY/WX    TMP DP  RH WIND       PRES   REMARKS
GRAND CANYON   SUNNY     62  23  22 S16G22    30.02R
WILLIAMS       SUNNY     63  21  20 S14G22    30.02R
PRESCOTT       SUNNY     66  27  23 SE17G28   29.98R
FLAGSTAFF      SUNNY     57  18  21 SW18G31   30.06R
PAYSON         SUNNY     66  14  13 S14G31    30.05S
PAGE           SUNNY     75  18  11 S9G21     29.84R
$$

AZZ009>014-017-261700-
NORTHEAST ARIZONA

CITY           SKY/WX    TMP DP  RH WIND       PRES   REMARKS
WINSLOW        SUNNY     75   7   7 SW25G32   29.96S
SAINT JOHNS    SUNNY     73  17  12 W24G39    30.01F
WINDOW ROCK    SUNNY     66  18  15 SW17G31   30.08S
SHOW LOW       SUNNY     63  18  17 S25G41    30.06R
$$

AZZ540-542>544-546-548-261700-
GREATER PHOENIX AREA

CITY           SKY/WX    TMP DP  RH WIND       PRES   REMARKS
PHOENIX        SUNNY     82  31  15 S13G28    29.83R
BUCKEYE        SUNNY     77  32  19 CALM      29.85R
GLENDALE       SUNNY     81  32  17 CALM      29.85R
LUKE AFB       SUNNY     81  31  16 CALM      29.84R
DEER VALLEY    SUNNY     80  28  15 S12       29.85R
SCOTTSDALE     SUNNY     80  30  16 S8        29.87R
MESA-FALCON    SUNNY     82  36  18 S8        29.86
MESA-GATEWAY   SUNNY     82  32  16 S9        29.87R
CHANDLER       SUNNY     82  32  16 SE15      29.84S
$$

AZZ539-553-261700-
SOUTHWEST MARICOPA COUNTY AND PINAL COUNTY

CITY           SKY/WX    TMP DP  RH WIND       PRES   REMARKS
CASA GRANDE    SUNNY     83  35  18 S14       29.87S
GILA BEND      FAIR      83  25  12 SW17      29.82R
$$

AZZ503-504-507>509-261700-
SOUTHEAST ARIZONA

CITY           SKY/WX    TMP DP  RH WIND       PRES   REMARKS
TUCSON         SUNNY     84  28  13 S14       29.95R
DAVIS-MONTHAN  SUNNY     81  28  14 S14       29.94S
RYAN FIELD     SUNNY     82  32  16 SW7       29.93S
NOGALES        SUNNY     79  28  15 S17G26    30.01S
SIERRA VISTA   SUNNY     75  28  17 SE7       30.06S
DOUGLAS        LGT RAIN  77  30  17 S14       30.04S
SAFFORD        SUNNY     82  24  12 VRB7      29.94S
$$

AZZ532-261700-
SOUTHWEST ARIZONA

CITY           SKY/WX    TMP DP  RH WIND       PRES   REMARKS
YUMA           MOSUNNY   74  42  31 SW5       29.82R
$$

CAZ041-043-047-048-061-525>527-560>570-261700-
SOUTHERN CALIFORNIA

CITY           SKY/WX    TMP DP  RH WIND       PRES   REMARKS
DOWNTOWN L.A.  CLOUDY    65  53  65 CALM      29.97R
L.A. AIRPORT   CLOUDY    64  51  62 VRB6      29.98R
SAN DIEGO      CLOUDY    64  52  64 S8        30.00R
BURBANK        CLOUDY    61  49  64 S6        29.97R
ONTARIO        CLOUDY    61  46  57 SW3       29.98R
RIVERSIDE      PTSUNNY   63  48  58 CALM      29.98R
PALM SPRINGS   SUNNY     73  43  33 NW9       29.81R
EL CENTRO NAS  MOSUNNY   75  38  26 SW8       29.82R
IMPERIAL       LGT RAIN  75  43  31 W10       29.80R
BLYTHE         SUNNY     76  40  27 S20       29.80R
NEEDLES        SUNNY     82  28  14 SW17G24   29.78R
$$

NVZ020-UTZ003-261700-
SOUTHERN NEVADA-UTAH

CITY           SKY/WX    TMP DP  RH WIND       PRES   REMARKS
LAS VEGAS      SUNNY     76  28  17 S12       29.74R
SALT LAKE CITY CLOUDY    57  37  47 N5        29.82R
$$

NMZ009-TXZ055-261700-
NEW MEXICO-WEST TEXAS

CITY           SKY/WX    TMP DP  RH WIND       PRES   REMARKS
ALBUQUERQUE    MOSUNNY   70  13  11 SW5       30.05F
EL PASO        PTSUNNY   82  26  13 W17       30.02S
$$


........................KEY........................
SKY/WX - SKY CONDITION/WEATHER
TMP    - TEMPERATURE IN FAHRENHEIT
DP     - DEW POINT IN FAHRENHEIT
RH     - RELATIVE HUMIDITY IN PERCENT
WIND   - DIRECTION AND SPEED IN MILES PER HOUR (MPH)
VRB    - VARIABLE WIND DIRECTION
PRES   - MEAN SEA LEVEL PRESSURE IN INCHES OF MERCURY
         F - FALLING PRESSURE   R - RISING PRESSURE
         S - STEADY PRESSURE
VSB    - VISIBILITY IN MILES
HX     - HEAT INDEX IN FAHRENHEIT
WCI    - WIND CHILL INDEX IN FAHRENHEIT
TC     - TEMPERATURE IN CELSIUS WHICH IS ALSO KNOWN AS
         TEMPERATURE IN CENTIGRADE
AFB    - AIR FORCE BASE
         LUKE AFB IS LUKE AIR FORCE BASE
         DAVIS-MONTHAN IS DAVIS-MONTHAN AIR FORCE BASE
NAS    - NAVAL AIR STATION
         EL CENTRO NAS IS EL CENTRO NAVAL AIR STATION
N/A    - NOT AVAILABLE





USA.gov is the U.S. government's official web portal to all federal, state and local government web resources and services.